This is the latest recevied weather packets stored in our database for station/object N8TWM-13. If no packets are shown the sender has not sent any weather packets the latest 10 day(s).
| Time | Temp. | Humidity | Pressure | Rain* | Wind** | Luminosity | Snow |
|---|---|---|---|---|---|---|---|
| 1778029320 | 10° C | 96% | 1008.3 hPa | 6.1 mm | - | 0 W/m² | - |
| 1778029017 | 10° C | 96% | 1008.6 hPa | 8.89 mm | - | 0 W/m² | - |
| 1778028714 | 10° C | 96% | 1008.5 hPa | 13.72 mm | - | 0 W/m² | - |
| 1778028410 | 10.56° C | 96% | 1008.4 hPa | 15.49 mm | - | 0 W/m² | - |
| 1778028107 | 11.11° C | 96% | 1008.3 hPa | 15.49 mm | - | 0 W/m² | - |
| 1778027803 | 11.11° C | 96% | 1007.8 hPa | 13.72 mm | - | 0 W/m² | - |
| 1778027500 | 11.67° C | 95% | 1007.6 hPa | 10.67 mm | - | 0 W/m² | - |
| 1778027196 | 12.22° C | 96% | 1007.7 hPa | 10.16 mm | - | 0 W/m² | - |
| 1778026892 | 12.22° C | 96% | 1007.7 hPa | 12.7 mm | - | 0 W/m² | - |
| 1778026588 | 12.78° C | 96% | 1007.4 hPa | 10.67 mm | - | 0 W/m² | - |
| 1778026286 | 12.78° C | 96% | 1007.6 hPa | 10.16 mm | - | 0 W/m² | - |
| 1778025983 | 12.78° C | 95% | 1007.4 hPa | 8.89 mm | - | 0 W/m² | - |
| 1778025680 | 12.78° C | 95% | 1007.5 hPa | 6.1 mm | - | 1 W/m² | - |
| 1778025378 | 12.22° C | 95% | 1007.5 hPa | 3.05 mm | - | 1 W/m² | - |
| 1778025075 | 12.22° C | 95% | 1007.5 hPa | 4.83 mm | - | 3 W/m² | - |
| 1778024772 | 12.22° C | 95% | 1007.6 hPa | 4.83 mm | - | 3 W/m² | - |
| 1778024468 | 12.78° C | 95% | 1007.7 hPa | 6.1 mm | - | 2 W/m² | - |
| 1778024166 | 12.78° C | 95% | 1007.7 hPa | 7.87 mm | - | 2 W/m² | - |
| 1778023863 | 13.33° C | 95% | 1008 hPa | 6.1 mm | - | 3 W/m² | - |
| 1778023561 | 13.89° C | 95% | 1008 hPa | 8.89 mm | - | 6 W/m² | - |
| 1778023258 | 13.89° C | 95% | 1008.1 hPa | 10.67 mm | - | 3 W/m² | - |
| 1778022955 | 13.89° C | 95% | 1008.3 hPa | 6.6 mm | - | 0 W/m² | - |
| 1778022654 | 14.44° C | 95% | 1007.9 hPa | 1.78 mm | - | 4 W/m² | - |
| 1778022351 | 14.44° C | 95% | 1007.7 hPa | 1.27 mm | - | 10 W/m² | - |
| 1778022047 | 14.44° C | 94% | 1007.8 hPa | 1.27 mm | - | 24 W/m² | - |
* Rain latest hour (hover to see other rain measurements)
** Current wind speed in m/s (hover to see current wind gust speed)